Time,TemperatureF,DewpointF,PressureIn,WindDirection,WindDirectionDegrees,WindSpeedMPH,WindSpeedGustMPH,Humidity,HourlyPrecipIn,Conditions,Clouds,dailyrainin,SolarRadiationWatts/m^2,SoftwareType,DateUTC
2013-02-11 00:00:00,34.8,31.9,29.24,ESE,113,0.0,1.0,89,0.00,,OVC019,0.00,0.00,VWS V14.01,2013-02-11 06:00:00,
2013-02-11 00:05:00,34.8,31.9,29.24,SSW,207,0.0,3.0,89,0.00,,OVC019,0.00,0.00,VWS V14.01,2013-02-11 06:05:00,
2013-02-11 00:11:00,34.9,32.0,29.24,SSW,211,3.0,4.0,89,0.00,,OVC019,0.00,0.00,VWS V14.01,2013-02-11 06:11:00,
2013-02-11 00:15:00,35.0,31.8,29.24,SSW,211,2.0,4.0,88,0.00,,OVC019,0.00,0.00,VWS V14.01,2013-02-11 06:15:00,
2013-02-11 00:20:00,35.0,31.8,29.24,SSW,211,0.0,4.0,88,0.00,,OVC019,0.00,0.00,VWS V14.01,2013-02-11 06:20:00,
2013-02-11 00:26:00,35.0,32.1,29.24,SSW,211,2.0,4.0,89,0.00,,OVC019,0.00,0.00,VWS V14.01,2013-02-11 06:26:00,
2013-02-11 00:30:00,35.0,32.1,29.24,SW,216,1.0,3.0,89,0.00,,OVC019,0.00,0.00,VWS V14.01,2013-02-11 06:30:00,
2013-02-11 00:35:00,34.9,32.0,29.24,SW,216,3.0,3.0,89,0.00,,OVC019,0.00,0.00,VWS V14.01,2013-02-11 06:35:00,
2013-02-11 00:40:00,35.0,32.1,29.24,SW,228,0.0,5.0,89,0.00,,-RA,0.00,0.00,VWS V14.01,2013-02-11 06:40:00,
2013-02-11 00:46:00,34.9,32.0,29.24,SW,229,2.0,5.0,89,0.00,,-RA,0.00,0.00,VWS V14.01,2013-02-11 06:46:00,
2013-02-11 00:50:00,34.8,31.9,29.24,SW,236,3.0,6.0,89,0.00,,-RA,0.00,0.00,VWS V14.01,2013-02-11 06:50:00,
2013-02-11 00:56:00,34.6,31.7,29.24,SW,228,5.0,6.0,89,0.00,,-RA,0.00,0.00,VWS V14.01,2013-02-11 06:56:00,
2013-02-11 01:01:00,34.6,31.7,29.24,SW,227,2.0,5.0,89,0.00,,,0.00,0.00,VWS V14.01,2013-02-11 07:01:00,
2013-02-11 01:06:00,34.5,31.6,29.24,SW,221,3.0,6.0,89,0.00,,,0.00,0.00,VWS V14.01,2013-02-11 07:06:00,
2013-02-11 01:11:00,34.4,31.5,29.24,SW,225,5.0,6.0,89,0.00,,,0.00,0.00,VWS V14.01,2013-02-11 07:11:00,
2013-02-11 01:16:00,34.4,31.5,29.24,SSW,198,5.0,6.0,89,0.00,,,0.00,0.00,VWS V14.01,2013-02-11 07:16:00,
2013-02-11 01:21:00,34.4,31.5,29.24,SSW,211,4.0,7.0,89,0.00,,,0.00,0.00,VWS V14.01,2013-02-11 07:21:00,
2013-02-11 01:26:00,34.4,31.5,29.24,SSW,209,6.0,7.0,89,0.00,,,0.00,0.00,VWS V14.01,2013-02-11 07:26:00,
2013-02-11 01:31:00,34.4,31.5,29.24,SSW,213,6.0,7.0,89,0.00,,,0.00,0.00,VWS V14.01,2013-02-11 07:31:00,
2013-02-11 01:36:00,34.4,31.5,29.24,South,190,6.0,8.0,89,0.00,,,0.00,0.00,VWS V14.01,2013-02-11 07:36:00,
2013-02-11 01:41:00,34.4,31.5,29.24,SSW,208,5.0,8.0,89,0.00,,,0.00,0.00,VWS V14.01,2013-02-11 07:41:00,
2013-02-11 01:46:00,34.3,31.4,29.24,SSW,198,4.0,8.0,89,0.00,,,0.00,0.00,VWS V14.01,2013-02-11 07:46:00,
2013-02-11 01:51:00,34.3,31.4,29.24,SW,221,6.0,8.0,89,0.00,,,0.00,0.00,VWS V14.01,2013-02-11 07:51:00,
2013-02-11 01:56:00,34.3,31.4,29.25,SW,223,3.0,8.0,89,0.00,,,0.00,0.00,VWS V14.01,2013-02-11 07:56:00,
2013-02-11 02:01:00,34.2,31.3,29.25,SSW,209,5.0,5.0,89,0.00,,,0.00,0.00,VWS V14.01,2013-02-11 08:01:00,
2013-02-11 02:06:00,34.2,31.3,29.25,WSW,243,5.0,6.0,89,0.00,,,0.00,0.00,VWS V14.01,2013-02-11 08:06:00,
2013-02-11 02:11:00,34.2,31.3,29.25,SW,232,4.0,7.0,89,0.00,,,0.00,0.00,VWS V14.01,2013-02-11 08:11:00,
2013-02-11 02:16:00,34.1,31.2,29.25,WSW,240,4.0,7.0,89,0.00,,,0.00,0.00,VWS V14.01,2013-02-11 08:16:00,
2013-02-11 02:21:00,34.1,31.2,29.25,WSW,244,3.0,7.0,89,0.00,,,0.00,0.00,VWS V14.01,2013-02-11 08:21:00,
2013-02-11 02:26:00,34.1,31.2,29.25,SW,226,6.0,7.0,89,0.00,,,0.00,0.00,VWS V14.01,2013-02-11 08:26:00,
2013-02-11 02:31:00,34.0,31.1,29.25,WSW,250,5.0,5.0,89,0.00,,,0.00,0.00,VWS V14.01,2013-02-11 08:31:00,
2013-02-11 02:36:00,34.1,31.2,29.25,WSW,238,4.0,7.0,89,0.00,,,0.00,0.00,VWS V14.01,2013-02-11 08:36:00,
2013-02-11 02:41:00,34.0,31.1,29.25,WSW,252,2.0,7.0,89,0.00,,,0.00,0.00,VWS V14.01,2013-02-11 08:41:00,
2013-02-11 02:46:00,34.0,31.1,29.26,WSW,238,4.0,7.0,89,0.00,,,0.00,0.00,VWS V14.01,2013-02-11 08:46:00,
2013-02-11 02:51:00,34.0,31.1,29.26,West,274,5.0,7.0,89,0.00,,,0.00,0.00,VWS V14.01,2013-02-11 08:51:00,
2013-02-11 02:56:00,34.0,31.1,29.26,West,277,5.0,7.0,89,0.00,,,0.00,0.00,VWS V14.01,2013-02-11 08:56:00,
2013-02-11 03:01:00,34.0,31.1,29.26,WNW,283,6.0,7.0,89,0.00,,,0.00,0.00,VWS V14.01,2013-02-11 09:01:00,
2013-02-11 03:06:00,34.0,31.1,29.26,West,277,4.0,9.0,89,0.00,,,0.00,0.00,VWS V14.01,2013-02-11 09:06:00,
2013-02-11 03:11:00,34.0,31.1,29.27,WNW,284,4.0,9.0,89,0.00,,,0.00,0.00,VWS V14.01,2013-02-11 09:11:00,
2013-02-11 03:16:00,34.0,31.1,29.27,WNW,300,6.0,9.0,89,0.00,,,0.00,0.00,VWS V14.01,2013-02-11 09:16:00,
2013-02-11 03:21:00,34.0,31.1,29.27,WNW,284,5.0,9.0,89,0.00,,,0.00,0.00,VWS V14.01,2013-02-11 09:21:00,
2013-02-11 03:26:00,34.1,31.2,29.27,NW,317,6.0,9.0,89,0.00,,,0.00,0.00,VWS V14.01,2013-02-11 09:26:00,
2013-02-11 03:31:00,34.1,31.2,29.27,WNW,298,5.0,9.0,89,0.00,,,0.00,0.00,VWS V14.01,2013-02-11 09:31:00,
2013-02-11 03:36:00,34.0,31.1,29.28,WNW,303,8.0,9.0,89,0.00,,,0.00,0.00,VWS V14.01,2013-02-11 09:36:00,
2013-02-11 03:41:00,33.9,31.0,29.28,NW,310,8.0,11.0,89,0.00,,,0.00,0.00,VWS V14.01,2013-02-11 09:41:00,
2013-02-11 03:46:00,33.9,31.0,29.28,NW,315,6.0,13.0,89,0.00,,,0.00,0.00,VWS V14.01,2013-02-11 09:46:00,
2013-02-11 03:51:00,33.9,31.0,29.28,NW,315,9.0,13.0,89,0.00,,,0.00,0.00,VWS V14.01,2013-02-11 09:51:00,
2013-02-11 03:56:00,33.8,30.9,29.29,NW,309,6.0,13.0,89,0.00,,,0.00,0.00,VWS V14.01,2013-02-11 09:56:00,
2013-02-11 04:01:00,33.8,30.9,29.29,NNW,329,8.0,11.0,89,0.00,,,0.00,0.00,VWS V14.01,2013-02-11 10:01:00,
2013-02-11 04:06:00,33.8,30.9,29.30,NW,309,6.0,11.0,89,0.00,,,0.00,0.00,VWS V14.01,2013-02-11 10:06:00,
2013-02-11 04:11:00,33.7,30.8,29.30,WNW,288,8.0,13.0,89,0.00,,,0.00,0.00,VWS V14.01,2013-02-11 10:11:00,
2013-02-11 04:16:00,33.7,31.1,29.30,NW,313,7.0,13.0,90,0.00,,,0.00,0.00,VWS V14.01,2013-02-11 10:16:00,
2013-02-11 04:21:00,33.6,31.0,29.31,WNW,294,6.0,13.0,90,0.00,,,0.00,0.00,VWS V14.01,2013-02-11 10:21:00,
2013-02-11 04:26:00,33.5,30.9,29.31,NW,319,10.0,15.0,90,0.00,,,0.00,0.00,VWS V14.01,2013-02-11 10:26:00,
2013-02-11 04:31:00,33.5,30.9,29.32,NW,306,5.0,11.0,90,0.00,,,0.00,0.00,VWS V14.01,2013-02-11 10:31:00,
2013-02-11 04:36:00,33.4,30.8,29.32,NW,311,10.0,12.0,90,0.00,,,0.00,0.00,VWS V14.01,2013-02-11 10:36:00,
2013-02-11 04:41:00,33.4,30.8,29.33,NW,309,5.0,12.0,90,0.00,,,0.00,0.00,VWS V14.01,2013-02-11 10:41:00,
2013-02-11 04:46:00,33.2,30.6,29.33,WNW,296,6.0,15.0,90,0.00,,,0.00,0.00,VWS V14.01,2013-02-11 10:46:00,
2013-02-11 04:51:00,33.2,30.6,29.33,WNW,296,6.0,15.0,90,0.00,,,0.00,0.00,VWS V14.01,2013-02-11 10:51:00,
2013-02-11 04:56:00,33.1,30.5,29.34,WNW,296,12.0,15.0,90,0.00,,,0.00,0.00,VWS V14.01,2013-02-11 10:56:00,
2013-02-11 05:01:00,33.0,30.4,29.34,WNW,296,11.0,11.0,90,0.00,,,0.00,0.00,VWS V14.01,2013-02-11 11:01:00,
2013-02-11 05:06:00,32.9,30.3,29.35,WNW,296,9.0,16.0,90,0.00,,,0.00,0.00,VWS V14.01,2013-02-11 11:06:00,
2013-02-11 05:11:00,32.9,30.3,29.35,WNW,296,10.0,18.0,90,0.00,,,0.00,0.00,VWS V14.01,2013-02-11 11:11:00,
2013-02-11 05:16:00,32.9,30.3,29.35,WNW,296,7.0,18.0,90,0.00,,,0.00,0.00,VWS V14.01,2013-02-11 11:16:00,
2013-02-11 05:21:00,32.9,30.3,29.36,WNW,296,4.0,18.0,90,0.00,,,0.00,0.00,VWS V14.01,2013-02-11 11:21:00,
2013-02-11 05:26:00,32.9,30.3,29.36,WNW,296,11.0,18.0,90,0.00,,,0.00,0.00,VWS V14.01,2013-02-11 11:26:00,
2013-02-11 05:31:00,32.9,30.3,29.37,WNW,296,10.0,13.0,90,0.00,,,0.00,0.00,VWS V14.01,2013-02-11 11:31:00,
2013-02-11 05:36:00,32.9,30.3,29.37,WNW,296,5.0,13.0,90,0.00,,,0.00,0.00,VWS V14.01,2013-02-11 11:36:00,
2013-02-11 05:41:00,33.0,30.4,29.38,WNW,296,13.0,13.0,90,0.00,,,0.00,0.00,VWS V14.01,2013-02-11 11:41:00,
2013-02-11 05:46:00,33.0,30.4,29.38,WNW,296,9.0,15.0,90,0.00,,,0.00,0.00,VWS V14.01,2013-02-11 11:46:00,
2013-02-11 05:52:00,33.0,30.4,29.39,WNW,296,10.0,15.0,90,0.00,,,0.00,0.00,VWS V14.01,2013-02-11 11:52:00,
2013-02-11 05:57:00,33.0,30.4,29.39,WNW,296,12.0,15.0,90,0.00,,,0.00,0.00,VWS V14.01,2013-02-11 11:57:00,
2013-02-11 06:02:00,33.0,30.4,29.39,WNW,296,12.0,14.0,90,0.00,,OVC011,0.00,0.00,VWS V14.01,2013-02-11 12:02:00,
2013-02-11 06:07:00,33.0,30.4,29.40,WNW,296,6.0,14.0,90,0.00,,OVC011,0.00,0.00,VWS V14.01,2013-02-11 12:07:00,
2013-02-11 06:12:00,33.0,30.7,29.40,WNW,296,6.0,14.0,91,0.00,,OVC011,0.00,0.00,VWS V14.01,2013-02-11 12:12:00,
2013-02-11 06:17:00,32.9,30.6,29.41,WNW,296,8.0,18.0,91,0.00,,OVC011,0.00,0.00,VWS V14.01,2013-02-11 12:17:00,
2013-02-11 06:22:00,32.5,30.2,29.41,WNW,296,7.0,19.0,91,0.00,,OVC011,0.00,0.00,VWS V14.01,2013-02-11 12:22:00,
2013-02-11 06:27:00,31.9,29.6,29.42,WNW,296,7.0,19.0,91,0.00,,OVC011,0.00,0.00,VWS V14.01,2013-02-11 12:27:00,
2013-02-11 06:32:00,31.6,29.3,29.42,WNW,296,9.0,15.0,91,0.00,,OVC011,0.00,0.00,VWS V14.01,2013-02-11 12:32:00,
2013-02-11 06:37:00,31.5,29.2,29.43,WNW,296,13.0,16.0,91,0.00,,OVC011,0.00,0.00,VWS V14.01,2013-02-11 12:37:00,
2013-02-11 06:42:00,31.4,29.1,29.43,WNW,296,11.0,16.0,91,0.00,,OVC011,0.00,0.00,VWS V14.01,2013-02-11 12:42:00,
2013-02-11 06:47:00,31.3,29.0,29.44,WNW,296,8.0,16.0,91,0.00,,OVC011,0.00,0.00,VWS V14.01,2013-02-11 12:47:00,
2013-02-11 06:52:00,31.2,28.9,29.44,WNW,296,12.0,16.0,91,0.00,,OVC011,0.00,0.00,VWS V14.01,2013-02-11 12:52:00,
2013-02-11 06:57:00,31.2,28.9,29.45,WNW,296,8.0,16.0,91,0.00,,OVC011,0.00,0.00,VWS V14.01,2013-02-11 12:57:00,
2013-02-11 07:02:00,31.1,28.8,29.45,WNW,296,18.0,19.0,91,0.00,,OVC011,0.00,0.00,VWS V14.01,2013-02-11 13:02:00,
2013-02-11 07:07:00,31.0,28.7,29.45,WNW,296,5.0,19.0,91,0.00,,OVC011,0.00,0.00,VWS V14.01,2013-02-11 13:07:00,
2013-02-11 07:12:00,31.0,28.7,29.45,WNW,296,9.0,19.0,91,0.00,,OVC011,0.00,0.00,VWS V14.01,2013-02-11 13:12:00,
2013-02-11 07:17:00,30.8,28.5,29.46,WNW,296,10.0,19.0,91,0.00,,OVC011,0.00,0.00,VWS V14.01,2013-02-11 13:17:00,
2013-02-11 07:22:00,30.8,28.2,29.47,WNW,296,8.0,19.0,90,0.00,,OVC011,0.00,0.00,VWS V14.01,2013-02-11 13:22:00,
2013-02-11 07:27:00,30.8,28.2,29.47,WNW,296,10.0,19.0,90,0.00,,OVC011,0.00,0.00,VWS V14.01,2013-02-11 13:27:00,
2013-02-11 07:32:00,30.7,28.1,29.47,WNW,296,8.0,10.0,90,0.00,,OVC011,0.00,7.00,VWS V14.01,2013-02-11 13:32:00,
2013-02-11 07:37:00,30.7,28.1,29.48,WNW,296,12.0,17.0,90,0.00,,OVC011,0.00,9.00,VWS V14.01,2013-02-11 13:37:00,
2013-02-11 07:42:00,30.7,28.1,29.48,WNW,296,9.0,17.0,90,0.00,,OVC011,0.00,12.00,VWS V14.01,2013-02-11 13:42:00,
2013-02-11 07:47:00,30.6,28.0,29.49,WNW,296,17.0,17.0,90,0.00,,OVC011,0.00,14.00,VWS V14.01,2013-02-11 13:47:00,
2013-02-11 07:52:00,30.6,28.0,29.49,WNW,296,9.0,17.0,90,0.00,,OVC011,0.00,12.00,VWS V14.01,2013-02-11 13:52:00,
2013-02-11 07:57:00,30.6,28.0,29.49,WNW,296,7.0,17.0,90,0.00,,OVC011,0.00,14.00,VWS V14.01,2013-02-11 13:57:00,
2013-02-11 08:02:00,30.5,27.9,29.49,WNW,296,5.0,11.0,90,0.00,,OVC013,0.00,16.00,VWS V14.01,2013-02-11 14:02:00,
2013-02-11 08:07:00,30.4,27.8,29.50,WNW,296,7.0,13.0,90,0.00,,OVC013,0.00,18.00,VWS V14.01,2013-02-11 14:07:00,
2013-02-11 08:12:00,30.4,27.8,29.50,WNW,296,9.0,15.0,90,0.00,,OVC013,0.00,19.00,VWS V14.01,2013-02-11 14:12:00,
2013-02-11 08:17:00,30.3,27.7,29.51,WNW,296,6.0,15.0,90,0.00,,OVC013,0.00,21.00,VWS V14.01,2013-02-11 14:17:00,
2013-02-11 08:22:00,30.3,27.7,29.51,WNW,296,9.0,16.0,90,0.00,,OVC013,0.00,28.00,VWS V14.01,2013-02-11 14:22:00,
2013-02-11 08:27:00,30.2,27.6,29.51,WNW,296,8.0,17.0,90,0.00,,OVC013,0.00,37.00,VWS V14.01,2013-02-11 14:27:00,
2013-02-11 08:32:00,30.2,27.6,29.52,WNW,296,11.0,18.0,90,0.00,,OVC013,0.00,49.00,VWS V14.01,2013-02-11 14:32:00,
2013-02-11 08:37:00,30.2,27.6,29.52,WNW,296,9.0,18.0,90,0.00,,OVC013,0.00,54.00,VWS V14.01,2013-02-11 14:37:00,
2013-02-11 08:42:00,30.1,27.5,29.52,WNW,296,11.0,18.0,90,0.00,,OVC013,0.00,62.00,VWS V14.01,2013-02-11 14:42:00,
2013-02-11 08:47:00,30.1,27.5,29.53,WNW,296,11.0,18.0,90,0.00,,OVC013,0.00,54.00,VWS V14.01,2013-02-11 14:47:00,
2013-02-11 08:52:00,30.0,27.2,29.53,WNW,296,13.0,18.0,89,0.00,,OVC013,0.00,54.00,VWS V14.01,2013-02-11 14:52:00,
2013-02-11 08:57:00,30.0,27.2,29.54,WNW,296,10.0,18.0,89,0.00,,OVC013,0.00,42.00,VWS V14.01,2013-02-11 14:57:00,
2013-02-11 09:02:00,29.9,27.1,29.54,WNW,296,7.0,14.0,89,0.00,,,0.00,28.00,VWS V14.01,2013-02-11 15:02:00,
2013-02-11 09:07:00,29.8,27.0,29.55,WNW,296,9.0,14.0,89,0.00,,,0.00,33.00,VWS V14.01,2013-02-11 15:07:00,
2013-02-11 09:12:00,29.8,27.0,29.55,WNW,296,12.0,14.0,89,0.00,,,0.00,35.00,VWS V14.01,2013-02-11 15:12:00,
2013-02-11 09:17:00,29.7,26.9,29.55,WNW,296,17.0,17.0,89,0.00,,,0.00,37.00,VWS V14.01,2013-02-11 15:17:00,
2013-02-11 09:22:00,29.6,26.8,29.56,WNW,296,8.0,17.0,89,0.00,,,0.00,37.00,VWS V14.01,2013-02-11 15:22:00,
2013-02-11 09:27:00,29.4,26.3,29.56,WNW,296,17.0,17.0,88,0.00,,,0.00,39.00,VWS V14.01,2013-02-11 15:27:00,
2013-02-11 09:32:00,29.4,26.3,29.57,WNW,296,15.0,16.0,88,0.00,,,0.00,35.00,VWS V14.01,2013-02-11 15:32:00,
2013-02-11 09:37:00,29.3,26.2,29.57,WNW,296,9.0,17.0,88,0.00,,,0.00,40.00,VWS V14.01,2013-02-11 15:37:00,
2013-02-11 09:42:00,29.2,26.1,29.57,WNW,296,8.0,18.0,88,0.00,,OVC015,0.00,42.00,VWS V14.01,2013-02-11 15:42:00,
2013-02-11 09:47:00,29.1,26.0,29.58,WNW,296,12.0,19.0,88,0.00,,OVC015,0.00,42.00,VWS V14.01,2013-02-11 15:47:00,
2013-02-11 09:52:00,29.0,25.9,29.58,WNW,296,10.0,19.0,88,0.00,,OVC015,0.00,49.00,VWS V14.01,2013-02-11 15:52:00,
2013-02-11 09:57:00,29.0,25.9,29.58,WNW,296,19.0,19.0,88,0.00,,OVC015,0.00,69.00,VWS V14.01,2013-02-11 15:57:00,
2013-02-11 10:02:00,28.9,25.8,29.59,WNW,296,8.0,14.0,88,0.00,,OVC015,0.00,62.00,VWS V14.01,2013-02-11 16:02:00,
2013-02-11 10:07:00,28.7,25.6,29.59,WNW,296,7.0,20.0,88,0.00,,OVC015,0.00,62.00,VWS V14.01,2013-02-11 16:07:00,
2013-02-11 10:12:00,28.5,25.1,29.60,WNW,296,10.0,20.0,87,0.00,,OVC015,0.00,62.00,VWS V14.01,2013-02-11 16:12:00,
2013-02-11 10:17:00,28.4,25.3,29.60,WNW,296,17.0,20.0,88,0.00,,OVC015,0.00,67.00,VWS V14.01,2013-02-11 16:17:00,
2013-02-11 10:22:00,28.3,25.2,29.60,WNW,296,13.0,20.0,88,0.00,,OVC015,0.00,65.00,VWS V14.01,2013-02-11 16:22:00,
2013-02-11 10:27:00,28.2,25.1,29.60,WNW,296,11.0,20.0,88,0.00,,OVC015,0.00,76.00,VWS V14.01,2013-02-11 16:27:00,
2013-02-11 10:32:00,28.1,24.7,29.61,WNW,296,14.0,18.0,87,0.00,,OVC015,0.00,76.00,VWS V14.01,2013-02-11 16:32:00,
2013-02-11 10:37:00,28.0,24.6,29.61,WNW,296,10.0,21.0,87,0.00,,OVC015,0.00,81.00,VWS V14.01,2013-02-11 16:37:00,
2013-02-11 10:42:00,27.9,24.5,29.62,WNW,296,12.0,21.0,87,0.00,,OVC015,0.00,86.00,VWS V14.01,2013-02-11 16:42:00,
2013-02-11 10:47:00,27.9,24.5,29.62,WNW,296,13.0,21.0,87,0.00,,OVC015,0.00,83.00,VWS V14.01,2013-02-11 16:47:00,
2013-02-11 10:52:00,27.9,24.5,29.62,WNW,296,12.0,21.0,87,0.00,,OVC015,0.00,77.00,VWS V14.01,2013-02-11 16:52:00,
2013-02-11 10:57:00,27.9,24.5,29.63,WNW,296,9.0,21.0,87,0.00,,OVC015,0.00,83.00,VWS V14.01,2013-02-11 16:57:00,
2013-02-11 11:02:00,27.9,24.3,29.63,WNW,296,9.0,14.0,86,0.00,,OVC017,0.00,102.00,VWS V14.01,2013-02-11 17:02:00,
2013-02-11 11:07:00,27.9,24.3,29.63,WNW,296,10.0,17.0,86,0.00,,OVC017,0.00,134.00,VWS V14.01,2013-02-11 17:07:00,
2013-02-11 11:12:00,27.9,24.3,29.64,WNW,296,7.0,19.0,86,0.00,,OVC017,0.00,172.00,VWS V14.01,2013-02-11 17:12:00,
2013-02-11 11:17:00,28.0,24.4,29.64,WNW,296,10.0,19.0,86,0.00,,OVC017,0.00,153.00,VWS V14.01,2013-02-11 17:17:00,
2013-02-11 11:22:00,28.0,24.1,29.65,WNW,296,10.0,21.0,85,0.00,,OVC017,0.00,141.00,VWS V14.01,2013-02-11 17:22:00,
2013-02-11 11:27:00,28.0,24.1,29.65,WNW,296,16.0,21.0,85,0.00,,OVC017,0.00,141.00,VWS V14.01,2013-02-11 17:27:00,
2013-02-11 11:32:00,27.9,23.7,29.65,WNW,296,15.0,22.0,84,0.00,,OVC017,0.00,114.00,VWS V14.01,2013-02-11 17:32:00,
2013-02-11 11:37:00,27.9,24.0,29.66,WNW,296,14.0,22.0,85,0.00,,OVC017,0.00,113.00,VWS V14.01,2013-02-11 17:37:00,
2013-02-11 11:42:00,27.8,23.6,29.66,WNW,296,7.0,22.0,84,0.00,,OVC017,0.00,127.00,VWS V14.01,2013-02-11 17:42:00,
2013-02-11 11:47:00,27.9,23.7,29.66,WNW,296,13.0,22.0,84,0.00,,OVC017,0.00,204.00,VWS V14.01,2013-02-11 17:47:00,
2013-02-11 11:52:00,28.0,23.8,29.66,WNW,296,10.0,22.0,84,0.00,,OVC017,0.00,123.00,VWS V14.01,2013-02-11 17:52:00,
2013-02-11 11:57:00,28.0,23.8,29.67,WNW,296,8.0,22.0,84,0.00,,OVC017,0.00,116.00,VWS V14.01,2013-02-11 17:57:00,
2013-02-11 12:02:00,27.7,23.5,29.67,WNW,296,12.0,18.0,84,0.00,,OVC019,0.00,128.00,VWS V14.01,2013-02-11 18:02:00,
2013-02-11 12:07:00,27.4,23.2,29.67,WNW,296,16.0,22.0,84,0.00,,OVC019,0.00,120.00,VWS V14.01,2013-02-11 18:07:00,
2013-02-11 12:12:00,27.4,23.2,29.67,WNW,296,6.0,22.0,84,0.00,,OVC019,0.00,120.00,VWS V14.01,2013-02-11 18:12:00,
2013-02-11 12:17:00,27.3,23.1,29.67,WNW,296,7.0,22.0,84,0.00,,OVC019,0.00,111.00,VWS V14.01,2013-02-11 18:17:00,
2013-02-11 12:22:00,27.2,22.7,29.68,WNW,296,13.0,22.0,83,0.00,,OVC019,0.00,113.00,VWS V14.01,2013-02-11 18:22:00,
2013-02-11 12:27:00,27.1,22.9,29.68,WNW,296,10.0,22.0,84,0.00,,OVC019,0.00,102.00,VWS V14.01,2013-02-11 18:27:00,
2013-02-11 12:32:00,27.0,22.8,29.68,WNW,296,17.0,20.0,84,0.00,,OVC019,0.00,107.00,VWS V14.01,2013-02-11 18:32:00,
2013-02-11 12:37:00,26.8,22.6,29.69,WNW,296,13.0,20.0,84,0.00,,OVC019,0.00,104.00,VWS V14.01,2013-02-11 18:37:00,
2013-02-11 12:42:00,26.7,22.5,29.69,WNW,296,10.0,20.0,84,0.00,,OVC019,0.00,102.00,VWS V14.01,2013-02-11 18:42:00,
2013-02-11 12:47:00,26.6,22.1,29.70,WNW,296,14.0,20.0,83,0.00,,OVC019,0.00,102.00,VWS V14.01,2013-02-11 18:47:00,
2013-02-11 12:52:00,26.6,22.4,29.70,WNW,296,7.0,20.0,84,0.00,,OVC019,0.00,113.00,VWS V14.01,2013-02-11 18:52:00,
2013-02-11 12:57:00,26.7,22.2,29.70,WNW,296,10.0,20.0,83,0.00,,OVC019,0.00,132.00,VWS V14.01,2013-02-11 18:57:00,
2013-02-11 13:03:00,26.7,22.0,29.70,WNW,296,12.0,17.0,82,0.00,,OVC019,0.00,139.00,VWS V14.01,2013-02-11 19:03:00,
2013-02-11 13:08:00,26.8,22.3,29.70,WNW,296,10.0,20.0,83,0.00,,OVC019,0.00,120.00,VWS V14.01,2013-02-11 19:08:00,
2013-02-11 13:13:00,26.9,22.4,29.71,WNW,296,8.0,20.0,83,0.00,,OVC019,0.00,123.00,VWS V14.01,2013-02-11 19:13:00,
2013-02-11 13:18:00,26.9,22.7,29.71,WNW,296,5.0,20.0,84,0.00,,OVC019,0.00,118.00,VWS V14.01,2013-02-11 19:18:00,
2013-02-11 13:23:00,26.8,22.3,29.71,WNW,296,16.0,23.0,83,0.00,,OVC019,0.00,127.00,VWS V14.01,2013-02-11 19:23:00,
2013-02-11 13:28:00,26.8,22.0,29.71,WNW,296,16.0,23.0,82,0.00,,OVC019,0.00,165.00,VWS V14.01,2013-02-11 19:28:00,
2013-02-11 13:33:00,26.8,22.0,29.71,WNW,296,16.0,20.0,82,0.00,,OVC019,0.00,174.00,VWS V14.01,2013-02-11 19:33:00,
2013-02-11 13:38:00,26.9,22.1,29.72,WNW,296,11.0,20.0,82,0.00,,OVC019,0.00,167.00,VWS V14.01,2013-02-11 19:38:00,
2013-02-11 13:43:00,27.0,22.0,29.72,WNW,296,13.0,21.0,81,0.00,,OVC019,0.00,176.00,VWS V14.01,2013-02-11 19:43:00,
2013-02-11 13:48:00,27.1,22.1,29.72,WNW,296,15.0,21.0,81,0.00,,OVC019,0.00,171.00,VWS V14.01,2013-02-11 19:48:00,
2013-02-11 13:53:00,27.2,22.1,29.73,WNW,296,10.0,21.0,81,0.00,,OVC019,0.00,153.00,VWS V14.01,2013-02-11 19:53:00,
2013-02-11 13:58:00,27.2,22.1,29.73,WNW,296,11.0,21.0,81,0.00,,OVC019,0.00,132.00,VWS V14.01,2013-02-11 19:58:00,
2013-02-11 14:03:00,27.2,22.1,29.73,WNW,296,18.0,19.0,81,0.00,,OVC028,0.00,128.00,VWS V14.01,2013-02-11 20:03:00,
2013-02-11 14:08:00,27.1,22.4,29.73,WNW,296,12.0,19.0,82,0.00,,OVC028,0.00,130.00,VWS V14.01,2013-02-11 20:08:00,
2013-02-11 14:13:00,27.0,22.0,29.74,WNW,296,14.0,19.0,81,0.00,,OVC028,0.00,111.00,VWS V14.01,2013-02-11 20:13:00,
2013-02-11 14:18:00,26.9,21.9,29.74,WNW,296,13.0,20.0,81,0.00,,OVC028,0.00,104.00,VWS V14.01,2013-02-11 20:18:00,
2013-02-11 14:23:00,26.9,22.1,29.74,WNW,296,11.0,20.0,82,0.00,,OVC028,0.00,121.00,VWS V14.01,2013-02-11 20:23:00,
2013-02-11 14:28:00,26.9,22.1,29.74,WNW,296,19.0,20.0,82,0.00,,OVC028,0.00,128.00,VWS V14.01,2013-02-11 20:28:00,
2013-02-11 14:33:00,27.0,22.0,29.74,WNW,296,12.0,19.0,81,0.00,,OVC028,0.00,125.00,VWS V14.01,2013-02-11 20:33:00,
2013-02-11 14:38:00,27.1,22.1,29.75,WNW,296,12.0,19.0,81,0.00,,OVC028,0.00,144.00,VWS V14.01,2013-02-11 20:38:00,
2013-02-11 14:43:00,27.2,22.1,29.75,WNW,296,18.0,19.0,81,0.00,,OVC028,0.00,127.00,VWS V14.01,2013-02-11 20:43:00,
2013-02-11 14:48:00,27.2,22.1,29.76,WNW,296,8.0,19.0,81,0.00,,OVC028,0.00,121.00,VWS V14.01,2013-02-11 20:48:00,
2013-02-11 14:53:00,27.2,22.1,29.76,WNW,296,11.0,22.0,81,0.00,,OVC028,0.00,113.00,VWS V14.01,2013-02-11 20:53:00,
2013-02-11 14:58:00,27.1,21.8,29.76,WNW,296,12.0,22.0,80,0.00,,OVC028,0.00,104.00,VWS V14.01,2013-02-11 20:58:00,
2013-02-11 15:03:00,27.1,21.8,29.76,WNW,296,19.0,24.0,80,0.00,,OVC024,0.00,91.00,VWS V14.01,2013-02-11 21:03:00,
2013-02-11 15:08:00,27.0,21.7,29.77,WNW,296,13.0,24.0,80,0.00,,OVC024,0.00,90.00,VWS V14.01,2013-02-11 21:08:00,
2013-02-11 15:13:00,27.0,21.7,29.77,WNW,296,12.0,24.0,80,0.00,,OVC024,0.00,98.00,VWS V14.01,2013-02-11 21:13:00,
2013-02-11 15:18:00,27.0,21.7,29.78,WNW,296,11.0,24.0,80,0.00,,OVC024,0.00,91.00,VWS V14.01,2013-02-11 21:18:00,
2013-02-11 15:23:00,27.0,22.0,29.78,WNW,296,6.0,24.0,81,0.00,,OVC024,0.00,77.00,VWS V14.01,2013-02-11 21:23:00,
2013-02-11 15:28:00,26.9,21.6,29.78,WNW,296,13.0,24.0,80,0.00,,OVC024,0.00,79.00,VWS V14.01,2013-02-11 21:28:00,
2013-02-11 15:33:00,26.9,21.6,29.78,WNW,296,16.0,21.0,80,0.00,,OVC024,0.00,76.00,VWS V14.01,2013-02-11 21:33:00,
2013-02-11 15:38:00,26.7,21.4,29.79,WNW,296,14.0,21.0,80,0.00,,OVC024,0.00,44.00,VWS V14.01,2013-02-11 21:38:00,
2013-02-11 15:43:00,26.7,21.4,29.79,WNW,296,19.0,21.0,80,0.00,,OVC024,0.00,46.00,VWS V14.01,2013-02-11 21:43:00,
2013-02-11 15:48:00,26.6,21.3,29.79,WNW,296,13.0,21.0,80,0.00,,OVC024,0.00,47.00,VWS V14.01,2013-02-11 21:48:00,
2013-02-11 15:53:00,26.5,21.2,29.80,WNW,296,17.0,21.0,80,0.00,,OVC024,0.00,46.00,VWS V14.01,2013-02-11 21:53:00,
2013-02-11 15:58:00,26.4,21.1,29.80,WNW,296,10.0,21.0,80,0.00,,OVC024,0.00,39.00,VWS V14.01,2013-02-11 21:58:00,
2013-02-11 16:03:00,26.3,21.0,29.81,WNW,296,14.0,16.0,80,0.00,,OVC026,0.00,33.00,VWS V14.01,2013-02-11 22:03:00,
2013-02-11 16:08:00,26.4,21.1,29.81,WNW,296,8.0,16.0,80,0.00,,OVC026,0.00,33.00,VWS V14.01,2013-02-11 22:08:00,
2013-02-11 16:13:00,26.3,21.0,29.81,WNW,296,10.0,16.0,80,0.00,,OVC026,0.00,37.00,VWS V14.01,2013-02-11 22:13:00,
2013-02-11 16:18:00,26.3,21.0,29.81,WNW,296,9.0,16.0,80,0.00,,OVC026,0.00,32.00,VWS V14.01,2013-02-11 22:18:00,
2013-02-11 16:23:00,26.4,21.1,29.81,WNW,296,15.0,17.0,80,0.00,,OVC026,0.00,25.00,VWS V14.01,2013-02-11 22:23:00,
2013-02-11 16:28:00,26.4,21.1,29.81,WNW,296,11.0,17.0,80,0.00,,OVC026,0.00,18.00,VWS V14.01,2013-02-11 22:28:00,
2013-02-11 16:33:00,26.3,21.0,29.81,WNW,296,12.0,15.0,80,0.00,,OVC026,0.00,16.00,VWS V14.01,2013-02-11 22:33:00,
2013-02-11 16:38:00,26.3,21.0,29.82,WNW,296,14.0,16.0,80,0.00,,OVC026,0.00,14.00,VWS V14.01,2013-02-11 22:38:00,
2013-02-11 16:43:00,26.4,20.8,29.82,WNW,296,12.0,21.0,79,0.00,,OVC026,0.00,14.00,VWS V14.01,2013-02-11 22:43:00,
2013-02-11 16:48:00,26.3,20.7,29.82,WNW,296,7.0,21.0,79,0.00,,OVC026,0.00,12.00,VWS V14.01,2013-02-11 22:48:00,
2013-02-11 16:53:00,26.3,20.7,29.83,WNW,296,10.0,21.0,79,0.00,,OVC026,0.00,12.00,VWS V14.01,2013-02-11 22:53:00,
2013-02-11 16:58:00,26.3,20.7,29.83,WNW,296,10.0,21.0,79,0.00,,OVC026,0.00,11.00,VWS V14.01,2013-02-11 22:58:00,
2013-02-11 17:03:00,26.3,20.7,29.83,WNW,296,10.0,16.0,79,0.00,,OVC024,0.00,11.00,VWS V14.01,2013-02-11 23:03:00,
2013-02-11 17:08:00,26.3,20.7,29.83,WNW,296,8.0,17.0,79,0.00,,OVC024,0.00,9.00,VWS V14.01,2013-02-11 23:08:00,
2013-02-11 17:13:00,26.3,20.7,29.83,WNW,296,8.0,17.0,79,0.00,,OVC024,0.00,5.00,VWS V14.01,2013-02-11 23:13:00,
2013-02-11 17:18:00,26.3,20.7,29.84,WNW,296,7.0,17.0,79,0.00,,OVC024,0.00,0.00,VWS V14.01,2013-02-11 23:18:00,
2013-02-11 17:23:00,26.3,20.7,29.84,WNW,296,10.0,17.0,79,0.00,,OVC024,0.00,0.00,VWS V14.01,2013-02-11 23:23:00,
2013-02-11 17:28:00,26.3,20.7,29.84,WNW,296,10.0,17.0,79,0.00,,OVC024,0.00,0.00,VWS V14.01,2013-02-11 23:28:00,
2013-02-11 17:33:00,26.3,20.7,29.85,WNW,296,6.0,14.0,79,0.00,,OVC024,0.00,0.00,VWS V14.01,2013-02-11 23:33:00,
2013-02-11 17:38:00,26.3,20.7,29.85,WNW,296,7.0,17.0,79,0.00,,OVC024,0.00,0.00,VWS V14.01,2013-02-11 23:38:00,
2013-02-11 17:43:00,26.3,21.0,29.85,WNW,296,10.0,17.0,80,0.00,,OVC024,0.00,0.00,VWS V14.01,2013-02-11 23:43:00,
2013-02-11 17:48:00,26.3,21.0,29.86,WNW,296,6.0,17.0,80,0.00,,OVC024,0.00,0.00,VWS V14.01,2013-02-11 23:48:00,
2013-02-11 17:53:00,26.3,21.0,29.86,WNW,296,8.0,17.0,80,0.00,,OVC024,0.00,0.00,VWS V14.01,2013-02-11 23:53:00,
2013-02-11 17:58:00,26.3,21.0,29.86,WNW,296,9.0,17.0,80,0.00,,OVC024,0.00,0.00,VWS V14.01,2013-02-11 23:58:00,
2013-02-11 18:03:00,26.4,21.1,29.86,WNW,296,12.0,13.0,80,0.00,,OVC026,0.00,0.00,VWS V14.01,2013-02-12 00:03:00,
2013-02-11 18:08:00,26.5,21.2,29.86,WNW,296,7.0,14.0,80,0.00,,OVC026,0.00,0.00,VWS V14.01,2013-02-12 00:08:00,
2013-02-11 18:13:00,26.4,21.1,29.87,WNW,296,9.0,14.0,80,0.00,,OVC026,0.00,0.00,VWS V14.01,2013-02-12 00:13:00,
2013-02-11 18:18:00,26.5,21.2,29.87,WNW,296,4.0,17.0,80,0.00,,OVC026,0.00,0.00,VWS V14.01,2013-02-12 00:18:00,
2013-02-11 18:23:00,26.5,21.5,29.87,WNW,296,10.0,17.0,81,0.00,,OVC026,0.00,0.00,VWS V14.01,2013-02-12 00:23:00,
2013-02-11 18:28:00,26.5,21.5,29.88,WNW,296,10.0,17.0,81,0.00,,OVC026,0.00,0.00,VWS V14.01,2013-02-12 00:28:00,
2013-02-11 18:33:00,26.5,21.5,29.88,WNW,296,5.0,12.0,81,0.00,,OVC026,0.00,0.00,VWS V14.01,2013-02-12 00:33:00,
2013-02-11 18:38:00,26.4,21.4,29.88,WNW,296,9.0,12.0,81,0.00,,OVC026,0.00,0.00,VWS V14.01,2013-02-12 00:38:00,
2013-02-11 18:43:00,26.4,21.7,29.88,WNW,296,7.0,12.0,82,0.00,,OVC026,0.00,0.00,VWS V14.01,2013-02-12 00:43:00,
2013-02-11 18:48:00,26.3,21.6,29.88,WNW,296,9.0,17.0,82,0.00,,OVC026,0.00,0.00,VWS V14.01,2013-02-12 00:48:00,
2013-02-11 18:53:00,26.2,21.5,29.89,WNW,296,5.0,17.0,82,0.00,,OVC026,0.00,0.00,VWS V14.01,2013-02-12 00:53:00,
2013-02-11 18:58:00,26.1,21.4,29.89,WNW,296,18.0,18.0,82,0.00,,OVC026,0.00,0.00,VWS V14.01,2013-02-12 00:58:00,
2013-02-11 19:03:00,26.0,21.3,29.89,WNW,296,9.0,12.0,82,0.00,,OVC024,0.00,0.00,VWS V14.01,2013-02-12 01:03:00,
2013-02-11 19:08:00,25.9,21.2,29.89,WNW,296,6.0,16.0,82,0.00,,OVC024,0.00,0.00,VWS V14.01,2013-02-12 01:08:00,
2013-02-11 19:13:00,25.8,21.4,29.89,WNW,296,6.0,16.0,83,0.00,,OVC024,0.00,0.00,VWS V14.01,2013-02-12 01:13:00,
2013-02-11 19:18:00,25.7,21.3,29.89,WNW,296,8.0,16.0,83,0.00,,OVC024,0.00,0.00,VWS V14.01,2013-02-12 01:18:00,
2013-02-11 19:23:00,25.6,21.2,29.89,WNW,296,9.0,16.0,83,0.00,,OVC024,0.00,0.00,VWS V14.01,2013-02-12 01:23:00,
2013-02-11 19:28:00,25.6,21.2,29.90,WNW,296,8.0,16.0,83,0.00,,OVC024,0.00,0.00,VWS V14.01,2013-02-12 01:28:00,
2013-02-11 19:33:00,25.4,21.0,29.90,WNW,296,13.0,17.0,83,0.00,,OVC024,0.00,0.00,VWS V14.01,2013-02-12 01:33:00,
2013-02-11 19:38:00,25.4,20.7,29.90,WNW,296,7.0,17.0,82,0.00,,OVC024,0.00,0.00,VWS V14.01,2013-02-12 01:38:00,
2013-02-11 19:43:00,25.3,20.9,29.90,WNW,296,8.0,17.0,83,0.00,,OVC024,0.00,0.00,VWS V14.01,2013-02-12 01:43:00,
2013-02-11 19:48:00,25.3,20.6,29.91,WNW,296,6.0,17.0,82,0.00,,OVC024,0.00,0.00,VWS V14.01,2013-02-12 01:48:00,
2013-02-11 19:53:00,25.2,20.5,29.90,WNW,296,10.0,17.0,82,0.00,,OVC024,0.00,0.00,VWS V14.01,2013-02-12 01:53:00,
2013-02-11 19:58:00,25.2,20.5,29.91,WNW,296,9.0,17.0,82,0.00,,OVC024,0.00,0.00,VWS V14.01,2013-02-12 01:58:00,
2013-02-11 20:03:00,25.2,20.5,29.91,WNW,296,8.0,14.0,82,0.00,,OVC024,0.00,0.00,VWS V14.01,2013-02-12 02:03:00,
2013-02-11 20:08:00,25.2,20.5,29.91,WNW,296,5.0,14.0,82,0.00,,OVC024,0.00,0.00,VWS V14.01,2013-02-12 02:08:00,
2013-02-11 20:13:00,25.1,20.7,29.91,WNW,296,7.0,14.0,83,0.00,,OVC024,0.00,0.00,VWS V14.01,2013-02-12 02:13:00,
2013-02-11 20:19:00,25.1,20.7,29.91,WNW,296,8.0,14.0,83,0.00,,OVC024,0.00,0.00,VWS V14.01,2013-02-12 02:19:00,
2013-02-11 20:24:00,24.9,20.2,29.92,WNW,296,13.0,14.0,82,0.00,,OVC024,0.00,0.00,VWS V14.01,2013-02-12 02:24:00,
2013-02-11 20:29:00,24.8,20.4,29.92,WNW,296,6.0,14.0,83,0.00,,OVC024,0.00,0.00,VWS V14.01,2013-02-12 02:29:00,
2013-02-11 20:34:00,24.8,20.1,29.92,WNW,296,11.0,16.0,82,0.00,,OVC024,0.00,0.00,VWS V14.01,2013-02-12 02:34:00,
2013-02-11 20:39:00,24.7,20.0,29.92,WNW,296,7.0,16.0,82,0.00,,OVC024,0.00,0.00,VWS V14.01,2013-02-12 02:39:00,
2013-02-11 20:44:00,24.7,20.0,29.92,WNW,296,7.0,16.0,82,0.00,,OVC024,0.00,0.00,VWS V14.01,2013-02-12 02:44:00,
2013-02-11 20:49:00,24.7,20.3,29.92,WNW,296,11.0,16.0,83,0.00,,OVC024,0.00,0.00,VWS V14.01,2013-02-12 02:49:00,
2013-02-11 20:54:00,24.6,20.2,29.93,WNW,296,10.0,16.0,83,0.00,,OVC024,0.00,0.00,VWS V14.01,2013-02-12 02:54:00,
2013-02-11 20:59:00,24.5,19.8,29.93,WNW,296,7.0,16.0,82,0.00,,OVC024,0.00,0.00,VWS V14.01,2013-02-12 02:59:00,
2013-02-11 21:04:00,24.4,20.0,29.93,WNW,296,7.0,10.0,83,0.00,,OVC022,0.00,0.00,VWS V14.01,2013-02-12 03:04:00,
2013-02-11 21:09:00,24.4,20.0,29.93,WNW,296,5.0,10.0,83,0.00,,OVC022,0.00,0.00,VWS V14.01,2013-02-12 03:09:00,
2013-02-11 21:14:00,24.3,19.9,29.93,WNW,296,7.0,10.0,83,0.00,,OVC022,0.00,0.00,VWS V14.01,2013-02-12 03:14:00,
2013-02-11 21:19:00,24.3,19.9,29.93,WNW,296,6.0,13.0,83,0.00,,OVC022,0.00,0.00,VWS V14.01,2013-02-12 03:19:00,
2013-02-11 21:24:00,24.3,19.9,29.93,WNW,296,4.0,13.0,83,0.00,,OVC022,0.00,0.00,VWS V14.01,2013-02-12 03:24:00,
2013-02-11 21:29:00,24.2,19.8,29.94,WNW,296,6.0,13.0,83,0.00,,OVC022,0.00,0.00,VWS V14.01,2013-02-12 03:29:00,
2013-02-11 21:34:00,24.1,19.7,29.94,WNW,296,7.0,13.0,83,0.00,,OVC022,0.00,0.00,VWS V14.01,2013-02-12 03:34:00,
2013-02-11 21:39:00,24.1,19.7,29.94,WNW,296,5.0,13.0,83,0.00,,OVC022,0.00,0.00,VWS V14.01,2013-02-12 03:39:00,
2013-02-11 21:44:00,24.0,19.6,29.94,WNW,296,10.0,13.0,83,0.00,,OVC022,0.00,0.00,VWS V14.01,2013-02-12 03:44:00,
2013-02-11 21:49:00,24.0,19.3,29.94,WNW,296,7.0,13.0,82,0.00,,OVC022,0.00,0.00,VWS V14.01,2013-02-12 03:49:00,
2013-02-11 21:54:00,23.9,19.2,29.95,WNW,296,7.0,13.0,82,0.00,,OVC022,0.00,0.00,VWS V14.01,2013-02-12 03:54:00,
2013-02-11 21:59:00,23.8,19.1,29.94,WNW,296,8.0,13.0,82,0.00,,OVC022,0.00,0.00,VWS V14.01,2013-02-12 03:59:00,
2013-02-11 22:04:00,23.8,19.1,29.95,WNW,296,9.0,12.0,82,0.00,,OVC020,0.00,0.00,VWS V14.01,2013-02-12 04:04:00,
2013-02-11 22:09:00,23.7,19.0,29.95,WNW,296,11.0,12.0,82,0.00,,OVC020,0.00,0.00,VWS V14.01,2013-02-12 04:09:00,
2013-02-11 22:14:00,23.7,19.0,29.95,WNW,296,10.0,12.0,82,0.00,,OVC020,0.00,0.00,VWS V14.01,2013-02-12 04:14:00,
2013-02-11 22:19:00,23.6,18.9,29.95,WNW,296,6.0,14.0,82,0.00,,OVC020,0.00,0.00,VWS V14.01,2013-02-12 04:19:00,
2013-02-11 22:24:00,23.5,18.8,29.95,WNW,296,4.0,14.0,82,0.00,,OVC020,0.00,0.00,VWS V14.01,2013-02-12 04:24:00,
2013-02-11 22:29:00,23.5,18.8,29.95,WNW,296,5.0,14.0,82,0.00,,OVC020,0.00,0.00,VWS V14.01,2013-02-12 04:29:00,
2013-02-11 22:34:00,23.4,18.7,29.96,WNW,296,10.0,14.0,82,0.00,,OVC020,0.00,0.00,VWS V14.01,2013-02-12 04:34:00,
2013-02-11 22:39:00,23.3,18.6,29.96,WNW,296,6.0,14.0,82,0.00,,OVC020,0.00,0.00,VWS V14.01,2013-02-12 04:39:00,
2013-02-11 22:44:00,23.3,18.6,29.96,WNW,296,9.0,14.0,82,0.00,,OVC020,0.00,0.00,VWS V14.01,2013-02-12 04:44:00,
2013-02-11 22:49:00,23.2,18.5,29.96,WNW,296,10.0,14.0,82,0.00,,OVC020,0.00,0.00,VWS V14.01,2013-02-12 04:49:00,
2013-02-11 22:54:00,23.1,18.4,29.96,WNW,296,8.0,14.0,82,0.00,,OVC020,0.00,0.00,VWS V14.01,2013-02-12 04:54:00,
2013-02-11 22:59:00,23.1,18.4,29.97,WNW,296,11.0,15.0,82,0.00,,OVC020,0.00,0.00,VWS V14.01,2013-02-12 04:59:00,
2013-02-11 23:00:00,23.1,18.4,29.97,WNW,296,13.0,13.0,82,0.00,,OVC020,0.00,0.00,VWS V14.01,2013-02-12 05:00:00,
2013-02-11 23:01:00,23.0,18.0,29.97,WNW,296,8.0,14.0,81,0.00,,OVC020,0.00,0.00,VWS V14.01,2013-02-12 05:01:00,
2013-02-11 23:06:00,23.0,18.0,29.97,WNW,296,8.0,14.0,81,0.00,,OVC020,0.00,0.00,VWS V14.01,2013-02-12 05:06:00,
2013-02-11 23:11:00,22.9,18.2,29.97,WNW,296,8.0,14.0,82,0.00,,OVC020,0.00,0.00,VWS V14.01,2013-02-12 05:11:00,
2013-02-11 23:16:00,22.9,18.0,29.97,WNW,296,9.0,14.0,81,0.00,,OVC020,0.00,0.00,VWS V14.01,2013-02-12 05:16:00,
2013-02-11 23:21:00,22.8,18.1,29.97,WNW,296,12.0,15.0,82,0.00,,OVC020,0.00,0.00,VWS V14.01,2013-02-12 05:21:00,
2013-02-11 23:26:00,22.8,18.1,29.97,WNW,296,9.0,15.0,82,0.00,,OVC020,0.00,0.00,VWS V14.01,2013-02-12 05:26:00,
2013-02-11 23:31:00,22.7,18.0,29.98,WNW,296,8.0,10.0,82,0.00,,OVC020,0.00,0.00,VWS V14.01,2013-02-12 05:31:00,
2013-02-11 23:36:00,22.7,18.0,29.98,WNW,296,10.0,11.0,82,0.00,,OVC020,0.00,0.00,VWS V14.01,2013-02-12 05:36:00,
2013-02-11 23:41:00,22.6,17.9,29.98,WNW,296,11.0,14.0,82,0.00,,OVC020,0.00,0.00,VWS V14.01,2013-02-12 05:41:00,
2013-02-11 23:46:00,22.6,17.7,29.98,WNW,296,9.0,14.0,81,0.00,,OVC020,0.00,0.00,VWS V14.01,2013-02-12 05:46:00,
2013-02-11 23:51:00,22.5,17.6,29.98,WNW,296,12.0,14.0,81,0.00,,OVC020,0.00,0.00,VWS V14.01,2013-02-12 05:51:00,
2013-02-11 23:56:00,22.4,17.8,29.98,WNW,296,8.0,14.0,82,0.00,,OVC020,0.00,0.00,VWS V14.01,2013-02-12 05:56:00,